This is the latest recevied weather packets stored in our database for station/object GBTWP-2. If no packets are shown the sender has not sent any weather packets the latest 10 day(s).
| Time | Temp. | Humidity | Pressure | Rain* | Wind** | Luminosity | Snow |
|---|---|---|---|---|---|---|---|
| 1787962318 | 20° C | 70% | 1023.2 hPa | 0 mm | - | 4 W/m² | - |
| 1787962020 | 20.56° C | 70% | 1023.4 hPa | 0 mm | - | 6 W/m² | - |
| 1787961720 | 20.56° C | 68% | 1023.4 hPa | 0 mm | - | 8 W/m² | - |
| 1787961418 | 21.11° C | 68% | 1023.5 hPa | 0 mm | - | 10 W/m² | - |
| 1787961120 | 21.11° C | 67% | 1023.3 hPa | 0 mm | - | 13 W/m² | - |
| 1787960820 | 21.11° C | 66% | 1023.4 hPa | 0 mm | - | 16 W/m² | - |
| 1787960520 | 21.67° C | 65% | 1023.5 hPa | 0 mm | - | 19 W/m² | - |
| 1787960221 | 21.67° C | 63% | 1023.4 hPa | 0 mm | - | 22 W/m² | - |
| 1787959920 | 22.22° C | 63% | 1023.5 hPa | 0 mm | - | 23 W/m² | - |
| 1787959620 | 22.22° C | 62% | 1023.4 hPa | 0 mm | - | 28 W/m² | - |
| 1787959319 | 22.22° C | 62% | 1023.5 hPa | 0 mm | - | 30 W/m² | - |
| 1787959018 | 22.22° C | 61% | 1023.3 hPa | 0 mm | - | 33 W/m² | - |
| 1787958720 | 22.78° C | 61% | 1023.3 hPa | 0 mm | - | 35 W/m² | - |
| 1787958420 | 22.78° C | 60% | 1023.4 hPa | 0 mm | - | 43 W/m² | - |
| 1787958120 | 22.78° C | 60% | 1023.5 hPa | 0 mm | - | 54 W/m² | - |
| 1787957820 | 22.78° C | 59% | 1023.6 hPa | 0 mm | - | 80 W/m² | - |
| 1787957520 | 22.78° C | 59% | 1023.7 hPa | 0 mm | - | 91 W/m² | - |
| 1787957220 | 23.33° C | 57% | 1023.6 hPa | 0 mm | - | 102 W/m² | - |
| 1787956920 | 23.33° C | 59% | 1023.5 hPa | 0 mm | - | 118 W/m² | - |
| 1787956620 | 22.78° C | 59% | 1023.6 hPa | 0 mm | - | 141 W/m² | - |
| 1787956321 | 22.78° C | 59% | 1023.8 hPa | 0 mm | - | 148 W/m² | - |
| 1787956020 | 22.22° C | 60% | 1023.6 hPa | 0 mm | - | 104 W/m² | - |
| 1787955720 | 22.22° C | 60% | 1023.9 hPa | 0 mm | - | 48 W/m² | - |
| 1787955420 | 22.22° C | 59% | 1023.8 hPa | 0 mm | - | 24 W/m² | - |
| 1787955120 | 22.78° C | 58% | 1023.8 hPa | 0 mm | - | 27 W/m² | - |
* Rain latest hour (hover to see other rain measurements)
** Current wind speed in m/s (hover to see current wind gust speed)